When you browse on this site, cookies collect data to enhance your experience and personalize the content and advertising you see.
Visit our Privacy Policy to learn more. By continuing to use the site, you agree to this use of cookies and data.
  • In Sweden
  • List of Countries
  • For 7 days
  • Water Temperature
  • Satellite Maps
  • Weather Map
  • Weather Widgets
  • user-avatar
    Login

    Hourly Weather Onykijeve

    Today, 22 April, Monday

    Time Temperature Precipitation Wind Pressure Humidity
    00:00 +10°C° 0 mm 1 mps 747 mmHg 44%
    01:00 +10°C° 0 mm 1 mps 747 mmHg 44%
    02:00 +9°C° 0 mm 1 mps 747 mmHg 43%
    03:00 +8°C° 0 mm 2 mps 747 mmHg 44%
    04:00 +8°C° 0 mm 2 mps 747 mmHg 46%
    05:00 +8°C° 0 mm 3 mps 748 mmHg 48%
    06:00 +9°C° 0 mm 3 mps 748 mmHg 47%
    07:00 +10°C° 0 mm 3 mps 748 mmHg 46%
    08:00 +12°C° 0 mm 4 mps 748 mmHg 46%
    09:00 +12°C° 0 mm 4 mps 748 mmHg 42%
    10:00 +13°C° 0 mm 4 mps 749 mmHg 38%
    11:00 +14°C° 0 mm 5 mps 749 mmHg 34%
    12:00 +14°C° 0 mm 4 mps 749 mmHg 34%
    13:00 +15°C° 0 mm 4 mps 749 mmHg 34%
    14:00 +15°C° 0 mm 4 mps 749 mmHg 34%
    15:00 +15°C° 0 mm 4 mps 749 mmHg 35%
    16:00 +14°C° 0 mm 3 mps 749 mmHg 37%
    17:00 +14°C° 0 mm 3 mps 749 mmHg 38%
    18:00 +13°C° 0 mm 3 mps 749 mmHg 42%
    19:00 +12°C° 0 mm 3 mps 749 mmHg 45%
    20:00 +12°C° 0 mm 2 mps 749 mmHg 48%
    21:00 +12°C° 0 mm 2 mps 749 mmHg 49%
    22:00 +10°C° 0 mm 2 mps 750 mmHg 51%
    23:00 +10°C° 0 mm 2 mps 750 mmHg 52%

    Tomorrow, 23 April, Tuesday

    Time Temperature Precipitation Wind Pressure Humidity
    00:00 +9°C° 0 mm 2 mps 750 mmHg 54%
    01:00 +9°C° 0 mm 2 mps 750 mmHg 56%
    02:00 +8°C° 0 mm 2 mps 750 mmHg 57%
    03:00 +8°C° 0 mm 2 mps 750 mmHg 56%
    04:00 +8°C° 0 mm 2 mps 751 mmHg 55%
    05:00 +9°C° 0 mm 2 mps 751 mmHg 53%
    06:00 +10°C° 0 mm 2 mps 751 mmHg 52%
    07:00 +11°C° 0 mm 3 mps 751 mmHg 50%
    08:00 +12°C° 0 mm 3 mps 751 mmHg 48%
    09:00 +13°C° 0 mm 3 mps 752 mmHg 45%
    10:00 +14°C° 0 mm 3 mps 752 mmHg 42%
    11:00 +16°C° 0 mm 3 mps 752 mmHg 38%
    12:00 +16°C° 0 mm 3 mps 752 mmHg 38%
    13:00 +16°C° 0 mm 3 mps 751 mmHg 38%
    14:00 +17°C° 0 mm 3 mps 751 mmHg 38%
    15:00 +16°C° 0 mm 3 mps 751 mmHg 39%
    16:00 +16°C° 0 mm 3 mps 751 mmHg 39%
    17:00 +16°C° 0 mm 2 mps 751 mmHg 40%
    18:00 +15°C° 0 mm 2 mps 751 mmHg 42%
    19:00 +14°C° 0 mm 2 mps 751 mmHg 45%
    20:00 +13°C° 0 mm 2 mps 751 mmHg 47%
    21:00 +12°C° 0 mm 2 mps 751 mmHg 49%
    22:00 +10°C° 0 mm 2 mps 751 mmHg 51%
    23:00 +9°C° 0 mm 2 mps 751 mmHg 53%

    Day after tomorrow, 24 April, Wednesday

    Time Temperature Precipitation Wind Pressure Humidity
    00:00 +9°C° 0 mm 2 mps 751 mmHg 54%
    01:00 +9°C° 0 mm 1 mps 751 mmHg 56%
    02:00 +9°C° 0 mm 1 mps 751 mmHg 58%
    03:00 +8°C° 0 mm 1 mps 751 mmHg 59%
    04:00 +8°C° 0 mm 1 mps 751 mmHg 59%
    05:00 +8°C° 0 mm 1 mps 751 mmHg 60%
    06:00 +9°C° 0 mm 2 mps 752 mmHg 55%
    07:00 +12°C° 0 mm 2 mps 752 mmHg 51%
    08:00 +13°C° 0 mm 3 mps 752 mmHg 47%
    09:00 +16°C° 0 mm 3 mps 752 mmHg 42%
    10:00 +17°C° 0 mm 4 mps 752 mmHg 38%
    11:00 +18°C° 0 mm 4 mps 752 mmHg 34%
    12:00 +19°C° 0 mm 4 mps 752 mmHg 33%
    13:00 +19°C° 0 mm 3 mps 752 mmHg 32%
    14:00 +19°C° 0 mm 3 mps 752 mmHg 31%
    15:00 +19°C° 0 mm 3 mps 751 mmHg 33%
    16:00 +19°C° 0 mm 3 mps 751 mmHg 34%
    17:00 +19°C° 0 mm 3 mps 751 mmHg 35%
    18:00 +17°C° 0 mm 2 mps 751 mmHg 39%
    19:00 +15°C° 0 mm 2 mps 751 mmHg 44%
    20:00 +14°C° 0 mm 1 mps 751 mmHg 49%
    21:00 +13°C° 0 mm 1 mps 751 mmHg 50%
    22:00 +12°C° 0 mm 1 mps 751 mmHg 52%
    23:00 +12°C° 0 mm 1 mps 751 mmHg 53%

    25 April, Thursday

    Time Temperature Precipitation Wind Pressure Humidity
    00:00 +11°C° 0 mm 1 mps 751 mmHg 55%
    01:00 +11°C° 0 mm 1 mps 751 mmHg 57%
    02:00 +10°C° 0 mm 1 mps 751 mmHg 60%
    03:00 +9°C° 0 mm 0 mps 751 mmHg 60%
    04:00 +9°C° 0 mm 0 mps 751 mmHg 61%
    05:00 +8°C° 0 mm 0 mps 751 mmHg 61%
    06:00 +12°C° 0 mm 1 mps 751 mmHg 56%
    07:00 +14°C° 0 mm 1 mps 752 mmHg 51%
    08:00 +16°C° 0 mm 1 mps 752 mmHg 46%
    09:00 +17°C° 0 mm 2 mps 752 mmHg 42%
    10:00 +18°C° 0 mm 2 mps 752 mmHg 38%
    11:00 +19°C° 0 mm 3 mps 752 mmHg 35%
    12:00 +20°C° 0 mm 3 mps 751 mmHg 34%
    13:00 +20°C° 0 mm 3 mps 751 mmHg 34%
    14:00 +21°C° 0 mm 3 mps 751 mmHg 33%
    15:00 +21°C° 0 mm 3 mps 751 mmHg 35%
    16:00 +20°C° 0 mm 3 mps 750 mmHg 38%
    17:00 +20°C° 0 mm 3 mps 750 mmHg 40%
    18:00 +18°C° 0 mm 3 mps 750 mmHg 45%
    19:00 +17°C° 0 mm 2 mps 750 mmHg 49%
    20:00 +15°C° 0 mm 2 mps 750 mmHg 54%
    21:00 +14°C° 0 mm 2 mps 750 mmHg 56%
    22:00 +14°C° 0 mm 2 mps 750 mmHg 58%
    23:00 +13°C° 0 mm 2 mps 750 mmHg 60%

    26 April, Friday

    Time Temperature Precipitation Wind Pressure Humidity
    00:00 +13°C° 0 mm 1 mps 750 mmHg 61%
    01:00 +12°C° 0 mm 1 mps 750 mmHg 63%
    02:00 +11°C° 0 mm 1 mps 750 mmHg 64%
    03:00 +11°C° 0 mm 1 mps 749 mmHg 65%
    04:00 +10°C° 0 mm 0 mps 749 mmHg 65%
    05:00 +10°C° 0 mm 0 mps 749 mmHg 66%
    06:00 +12°C° 0 mm 0 mps 749 mmHg 61%
    07:00 +15°C° 0 mm 1 mps 749 mmHg 55%
    08:00 +18°C° 0 mm 1 mps 749 mmHg 50%
    09:00 +19°C° 0 mm 1 mps 749 mmHg 47%
    10:00 +19°C° 0 mm 2 mps 749 mmHg 44%
    11:00 +21°C° 0 mm 3 mps 749 mmHg 41%
    12:00 +21°C° 0 mm 3 mps 749 mmHg 41%
    13:00 +21°C° 0 mm 3 mps 748 mmHg 41%
    14:00 +22°C° 0 mm 3 mps 748 mmHg 41%
    15:00 +21°C° 0 mm 3 mps 747 mmHg 42%
    16:00 +21°C° 0 mm 3 mps 747 mmHg 44%
    17:00 +21°C° 0 mm 3 mps 747 mmHg 45%
    18:00 +19°C° 0 mm 3 mps 747 mmHg 50%
    19:00 +18°C° 0 mm 3 mps 747 mmHg 56%
    20:00 +16°C° 0 mm 2 mps 747 mmHg 62%
    21:00 +16°C° 0 mm 2 mps 747 mmHg 63%
    22:00 +15°C° 0 mm 2 mps 746 mmHg 65%
    23:00 +15°C° 0 mm 2 mps 746 mmHg 67%

    27 April, Saturday

    Time Temperature Precipitation Wind Pressure Humidity
    00:00 +14°C° 0 mm 2 mps 746 mmHg 69%
    01:00 +13°C° 0 mm 2 mps 746 mmHg 72%
    02:00 +13°C° 0 mm 2 mps 746 mmHg 74%
    03:00 +12°C° 0 mm 2 mps 746 mmHg 75%
    04:00 +12°C° 0 mm 1 mps 746 mmHg 76%
    05:00 +12°C° 0 mm 1 mps 746 mmHg 77%
    06:00 +14°C° 0 mm 1 mps 746 mmHg 70%
    07:00 +16°C° 0 mm 2 mps 746 mmHg 62%
    08:00 +18°C° 0 mm 2 mps 746 mmHg 55%
    09:00 +19°C° 0 mm 3 mps 746 mmHg 50%
    10:00 +20°C° 0 mm 4 mps 746 mmHg 45%
    11:00 +21°C° 0 mm 5 mps 746 mmHg 40%
    12:00 +22°C° 0 mm 5 mps 745 mmHg 40%
    13:00 +22°C° 0 mm 5 mps 745 mmHg 39%
    14:00 +23°C° 0 mm 4 mps 745 mmHg 38%
    15:00 +22°C° 0 mm 4 mps 744 mmHg 42%
    16:00 +21°C° 0 mm 3 mps 744 mmHg 47%
    17:00 +20°C° 0 mm 2 mps 744 mmHg 51%
    18:00 +19°C° 0 mm 2 mps 744 mmHg 52%
    19:00 +18°C° 0 mm 2 mps 744 mmHg 54%
    20:00 +18°C° 0 mm 1 mps 744 mmHg 55%
    21:00 +18°C° 0 mm 1 mps 744 mmHg 55%
    22:00 +18°C° 0 mm 1 mps 744 mmHg 55%
    23:00 +16°C° 0 mm 0 mps 744 mmHg 55%
    Show more